This is the latest recevied weather packets stored in our database for station/object WB5CFT. If no packets are shown the sender has not sent any weather packets the latest 10 day(s).
| Time | Temp. | Humidity | Pressure | Rain* | Wind** | Luminosity | Snow |
|---|---|---|---|---|---|---|---|
| 1776954500 | 25° C | 21% | 1011.1 hPa | 0 mm | - | 256 W/m² | - |
| 1776954196 | 25° C | 21% | 1011.2 hPa | 0 mm | - | 259 W/m² | - |
| 1776953891 | 25° C | 21% | 1011.3 hPa | 0 mm | - | 240 W/m² | - |
| 1776953586 | 25° C | 21% | 1011.2 hPa | 0 mm | - | 221 W/m² | - |
| 1776953286 | 24.44° C | 20% | 1011.2 hPa | 0 mm | - | 206 W/m² | - |
| 1776952984 | 24.44° C | 20% | 1011.3 hPa | 0 mm | - | 96 W/m² | - |
| 1776952681 | 24.44° C | 21% | 1011.2 hPa | 0 mm | - | 173 W/m² | - |
| 1776952377 | 23.89° C | 22% | 1011.2 hPa | 0 mm | - | 157 W/m² | - |
| 1776952075 | 23.89° C | 21% | 1011.1 hPa | 0 mm | - | 141 W/m² | - |
| 1776951771 | 23.89° C | 21% | 1011.3 hPa | 0 mm | - | 127 W/m² | - |
| 1776951467 | 23.89° C | 21% | 1011.2 hPa | 0 mm | - | 113 W/m² | - |
| 1776951164 | 23.89° C | 21% | 1011.2 hPa | 0 mm | - | 101 W/m² | - |
| 1776950861 | 23.33° C | 21% | 1011.1 hPa | 0 mm | - | 89 W/m² | - |
| 1776950557 | 23.33° C | 21% | 1010.9 hPa | 0 mm | - | 80 W/m² | - |
| 1776950255 | 22.78° C | 21% | 1010.9 hPa | 0 mm | - | 71 W/m² | - |
| 1776949952 | 22.78° C | 21% | 1011 hPa | 0 mm | - | 63 W/m² | - |
| 1776949648 | 22.22° C | 22% | 1010.9 hPa | 0 mm | - | 55 W/m² | - |
| 1776949345 | 22.22° C | 21% | 1010.9 hPa | 0 mm | - | 40 W/m² | - |
| 1776949040 | 21.67° C | 21% | 1010.9 hPa | 0 mm | - | 30 W/m² | - |
| 1776948736 | 21.67° C | 22% | 1010.7 hPa | 0 mm | - | 26 W/m² | - |
| 1776948433 | 21.11° C | 22% | 1011 hPa | 0 mm | - | 20 W/m² | - |
| 1776948130 | 20° C | 23% | 1011 hPa | 0 mm | - | 15 W/m² | - |
| 1776947829 | 19.44° C | 23% | 1010.9 hPa | 0 mm | - | 11 W/m² | - |
| 1776947525 | 18.89° C | 24% | 1010.6 hPa | 0 mm | - | 8 W/m² | - |
| 1776947221 | 19.44° C | 23% | 1010.5 hPa | 0 mm | - | 5 W/m² | - |
* Rain latest hour (hover to see other rain measurements)
** Current wind speed in m/s (hover to see current wind gust speed)